Regional Weather Roundup
Issued by NWS

Home | Current Version | Previous Version | Text Only | Print | Product List | Glossary Off
Versions: 1 2 3 4 5 6 7 8 9 10 11 12 13 14 15 16 17 18 19 20 21 22 23 24 25 26 27 28 29 30 31 32 33 34 35 36 37 38 39 40 41 42 43 44 45 46 47 48 49 50

000
ASUS43 KLMK 222302
RWRKY
KENTUCKY REGIONAL WEATHER ROUNDUP
NATIONAL WEATHER SERVICE LOUISVILLE KY
700 PM EDT TUE AUG 22 2017

NOTE "FAIR" INDICATES FEW OR NO CLOUDS BELOW 12,000 FEET
WITH NO SIGNIFICANT WEATHER AND/OR OBSTRUCTIONS TO VISIBILITY.

KYZ001>023-026-027-061>063-070>075-230000-
WESTERN AND SOUTH CENTRAL KENTUCKY

CITY           SKY/WX    TMP DP  RH WIND       PRES   REMARKS
PADUCAH        CLOUDY    84  69  60 N12       29.96R
HENDERSON      NOT AVBL
OWENSBORO      CLOUDY    77  73  87 W3        29.96S
HOPKINSVILLE   CLOUDY    73  73 100 NW7       29.95F
BOWLING GREEN  LGT RAIN  76  74  93 VRB6      29.96R
GLASGOW        DRIZZLE   82  69  65 SW3       29.93F
$$

KYZ024-025-028>034-038-045-046-053-230000-
NORTH CENTRAL KENTUCKY

CITY           SKY/WX    TMP DP  RH WIND       PRES   REMARKS
LOUISVILLE/SDF CLOUDY    75  71  87 W5        29.93S
LOUISVILLE/LOU CLOUDY    74  72  93 SW3       29.94R
FORT KNOX      CLOUDY    72  72 100 SW3       29.94F
$$

KYZ035>037-039>044-047>052-055>060-089>105-230000-
NORTHEAST KENTUCKY

CITY           SKY/WX    TMP DP  RH WIND       PRES   REMARKS
LEXINGTON      TSTM      73  70  90 NE6       29.96S
COVINGTON      CLOUDY    76  70  82 W6        29.92S
FRANKFORT      CLOUDY    72  69  90 W3        29.93F
$$

KYZ054-064>069-076>088-106>120-230000-
SOUTHEAST KENTUCKY

CITY           SKY/WX    TMP DP  RH WIND       PRES   REMARKS
JACKSON        CLOUDY    74  71  91 CALM      29.96F
LONDON         PTSUNNY   78  73  84 SW3       29.97S
SOMERSET       NOT AVBL
MIDDLESBORO    HVY RAIN  80  73  80 NW9G23    30.00R
MONTICELLO     CLOUDY    81  73  76 W13       29.98S
$$




USA.gov is the U.S. government's official web portal to all federal, state and local government web resources and services.